| time (UTC) | temp F | wind direction | speed knots | gust knots | rain 1hr in | rain 24hr in | rain mn in | humidity % | barometer mb |
| 20260504081944 | 77 | 56 | 5.2 | 13.0 | 0.10 | 0.48 | 0.00 | 75 | 1014.6 |
| 20260504081736 | 77 | 50 | 0.0 | 13.0 | 0.11 | 0.48 | 0.00 | 75 | 1014.6 |
| 20260504081445 | 77 | 113 | 1.7 | 7.8 | 0.12 | 0.49 | 0.00 | 74 | 1014.5 |
| 20260504081226 | 77 | 57 | 1.7 | 8.7 | 0.14 | 0.49 | 0.00 | 74 | 1014.6 |
| 20260504080944 | 77 | 69 | 4.3 | 8.7 | 0.14 | 0.49 | 0.00 | 74 | 1014.7 |
| 20260504080716 | 77 | 81 | 0.9 | 7.8 | 0.11 | 0.47 | 0.00 | 74 | 1014.8 |
| 20260504080444 | 77 | 360 | 0.9 | 7.8 | 0.11 | 0.46 | 0.00 | 74 | 1014.8 |
| 20260504080206 | 77 | 46 | 2.6 | 7.0 | 0.10 | 0.44 | 0.00 | 74 | 1014.9 |
| 20260504050625 | 81 | 27 | 9.6 | 16.5 | 0.04 | 1.02 | 0.00 | 62 | 1015.9 |
| 20260504050442 | 82 | 41 | 7.0 | 13.0 | 0.04 | 1.05 | 0.00 | 62 | 1015.9 |
| 20260504045943 | 81 | 339 | 7.0 | 12.2 | 0.02 | 1.09 | 0.00 | 63 | 1015.9 |
| 20260504045605 | 81 | 360 | 2.6 | 15.6 | 0.02 | 1.15 | 0.00 | 64 | 1015.8 |
| 20260504045443 | 81 | 55 | 7.0 | 15.6 | 0.02 | 1.18 | 0.00 | 64 | 1015.9 |
| 20260504045054 | 81 | 14 | 0.9 | 11.3 | 0.02 | 1.21 | 0.00 | 64 | 1016.0 |
| 20260504044943 | 81 | 31 | 4.3 | 11.3 | 0.02 | 1.22 | 0.00 | 65 | 1016.0 |
| 20260504044544 | 81 | 51 | 2.6 | 16.5 | 0.02 | 1.27 | 0.00 | 65 | 1016.0 |
| 20260504044443 | 80 | 33 | 4.3 | 16.5 | 0.02 | 1.27 | 0.00 | 65 | 1016.0 |
| 20260504044034 | 80 | 38 | 4.3 | 19.1 | 0.02 | 1.37 | 0.00 | 66 | 1016.0 |
| 20260504043942 | 80 | 356 | 1.7 | 19.1 | 0.02 | 1.37 | 0.00 | 66 | 1016.0 |
| 20260504043524 | 81 | 204 | 4.3 | 10.4 | 0.01 | 1.45 | 0.00 | 65 | 1015.9 |
| 20260504043443 | 81 | 127 | 6.1 | 10.4 | 0.01 | 1.45 | 0.00 | 65 | 1015.9 |
| 20260504043015 | 82 | 266 | 2.6 | 6.1 | 0.01 | 1.54 | 0.00 | 66 | 1015.8 |
| 20260504042943 | 82 | 246 | 2.6 | 6.1 | 0.01 | 1.54 | 0.00 | 66 | 1015.8 |
| 20260504042505 | 82 | 56 | 1.7 | 7.0 | 0.02 | 1.62 | 0.00 | 65 | 1015.8 |
| 20260504042442 | 82 | 43 | 1.7 | 7.0 | 0.02 | 1.68 | 0.00 | 65 | 1015.8 |
| 20260504041954 | 81 | 265 | 5.2 | 7.8 | 0.02 | 1.73 | 0.00 | 66 | 1016.0 |
| 20260504041943 | 81 | 253 | 4.3 | 7.8 | 0.02 | 1.75 | 0.00 | 66 | 1015.9 |
| 20260504041445 | 80 | 314 | 4.3 | 8.7 | 0.02 | 1.84 | 0.00 | 66 | 1015.9 |
| 20260504041442 | 80 | 265 | 4.3 | 8.7 | 0.02 | 1.84 | 0.00 | 66 | 1015.9 |
| 20260504040943 | 80 | 44 | 1.7 | 8.7 | 0.02 | 1.96 | 0.00 | 67 | 1016.1 |
| 20260504040934 | 80 | 23 | 1.7 | 8.7 | 0.02 | 1.96 | 0.00 | 67 | 1016.2 |
| 20260504040443 | 80 | 25 | 2.6 | 7.0 | 0.01 | 2.01 | 0.00 | 68 | 1016.2 |
| 20260504040423 | 80 | 63 | 0.9 | 7.0 | 0.01 | 2.01 | 0.00 | 68 | 1016.2 |
| 20260504035942 | 79 | 5 | 5.2 | 8.7 | 0.01 | 2.09 | 0.00 | 67 | 1016.2 |
| 20260504035443 | 79 | 33 | 2.6 | 5.2 | 0.02 | 2.23 | 0.00 | 68 | 1016.2 |
| 20260504035404 | 79 | 35 | 2.6 | 5.2 | 0.02 | 2.23 | 0.00 | 68 | 1016.2 |
| 20260504034942 | 79 | 79 | 2.6 | 7.0 | 0.02 | 2.37 | 0.00 | 67 | 1016.3 |
| 20260504034853 | 79 | 68 | 4.3 | 7.0 | 0.02 | 2.37 | 0.00 | 67 | 1016.3 |
| 20260504034442 | 80 | 301 | 0.9 | 2.6 | 0.02 | 2.49 | 0.00 | 67 | 1016.3 |
| 20260504034344 | 80 | 110 | 0.9 | 2.6 | 0.02 | 2.49 | 0.00 | 68 | 1016.3 |
| 20260504033943 | 80 | 110 | 0.9 | 5.2 | 0.02 | 2.51 | 0.00 | 68 | 1016.2 |
| 20260504033834 | 79 | 300 | 3.5 | 5.2 | 0.02 | 2.53 | 0.00 | 67 | 1016.2 |
| 20260504033442 | 80 | 205 | 3.5 | 5.2 | 0.02 | 2.58 | 0.00 | 67 | 1016.3 |
| 20260504033323 | 80 | 176 | 0.9 | 3.5 | 0.02 | 2.58 | 0.00 | 68 | 1016.3 |
| 20260504032942 | 79 | 36 | 1.7 | 7.0 | 0.02 | 2.64 | 0.00 | 68 | 1016.3 |
| 20260504032814 | 79 | 31 | 0.9 | 7.0 | 0.02 | 2.64 | 0.00 | 68 | 1016.2 |
| 20260504032443 | 79 | 29 | 1.7 | 7.8 | 0.01 | 2.74 | 0.00 | 67 | 1016.2 |
| 20260504032304 | 79 | 27 | 5.2 | 7.8 | 0.02 | 2.76 | 0.00 | 67 | 1016.2 |
| 20260504031942 | 79 | 303 | 0.9 | 9.6 | 0.02 | 2.84 | 0.00 | 68 | 1016.2 |
| 20260504031753 | 79 | 349 | 2.6 | 10.4 | 0.02 | 2.85 | 0.00 | 68 | 1016.2 |
| 20260504031442 | 79 | 27 | 6.1 | 10.4 | 0.02 | 2.97 | 0.00 | 67 | 1016.2 |
| 20260504031244 | 79 | 117 | 4.3 | 8.7 | 0.02 | 3.04 | 0.00 | 68 | 1016.4 |
| 20260504030942 | 79 | 10 | 4.3 | 8.7 | 0.02 | 3.09 | 0.00 | 67 | 1016.6 |
| 20260504030733 | 79 | 124 | 2.6 | 7.8 | 0.02 | 3.12 | 0.00 | 67 | 1016.5 |
| 20260504030442 | 79 | 36 | 1.7 | 5.2 | 0.02 | 3.20 | 0.00 | 67 | 1016.5 |
| 20260504030224 | 79 | 54 | 0.0 | 6.1 | 0.02 | 3.23 | 0.00 | 68 | 1016.6 |
| 20260504025942 | 79 | 49 | 1.7 | 8.7 | 0.02 | 3.29 | 0.00 | 67 | 1016.6 |
| 20260504025713 | 79 | 50 | 1.7 | 8.7 | 0.01 | 3.33 | 0.00 | 66 | 1016.6 |
| 20260504025442 | 80 | 54 | 2.6 | 7.8 | 0.01 | 3.37 | 0.00 | 66 | 1016.5 |
| 20260504025204 | 81 | 285 | 4.3 | 7.8 | 0.01 | 3.44 | 0.00 | 66 | 1016.5 |
| 20260504024942 | 81 | 294 | 2.6 | 7.8 | 0.01 | 3.53 | 0.00 | 66 | 1016.5 |
| 20260504024653 | 81 | 351 | 3.5 | 8.7 | 0.01 | 3.56 | 0.00 | 66 | 1016.5 |
| 20260504024442 | 80 | 108 | 2.6 | 8.7 | 0.01 | 3.60 | 0.00 | 65 | 1016.5 |
| 20260504024144 | 81 | 257 | 2.6 | 13.9 | 0.01 | 3.69 | 0.00 | 67 | 1016.4 |
| 20260504023942 | 80 | 46 | 2.6 | 13.9 | 0.01 | 3.73 | 0.00 | 66 | 1016.4 |
| 20260504023633 | 80 | 286 | 2.6 | 7.0 | 0.01 | 3.80 | 0.00 | 66 | 1016.4 |
| 20260504023442 | 79 | 126 | 1.7 | 11.3 | 0.01 | 3.83 | 0.00 | 67 | 1016.4 |
| 20260504023123 | 79 | 83 | 5.2 | 11.3 | 0.01 | 3.92 | 0.00 | 67 | 1016.4 |
| 20260504022942 | 79 | 19 | 7.0 | 10.4 | 0.01 | 3.96 | 0.00 | 67 | 1016.5 |
| 20260504022613 | 79 | 230 | 2.6 | 6.1 | 0.01 | 4.06 | 0.00 | 67 | 1016.4 |
| 20260504022441 | 79 | 352 | 1.7 | 6.1 | 0.01 | 4.12 | 0.00 | 68 | 1016.5 |
| 20260504022103 | 77 | 5 | 2.6 | 10.4 | 0.00 | 4.21 | 0.00 | 68 | 1016.4 |
| 20260504021942 | 77 | 23 | 6.1 | 10.4 | 0.00 | 4.24 | 0.00 | 68 | 1016.4 |
| 20260504021552 | 77 | 85 | 4.3 | 12.2 | 0.00 | 4.31 | 0.00 | 68 | 1016.3 |
| 20260504021441 | 77 | 354 | 4.3 | 14.8 | 0.00 | 4.37 | 0.00 | 68 | 1016.3 |
| 20260504021043 | 77 | 76 | 7.8 | 14.8 | 0.00 | 4.42 | 0.00 | 67 | 1016.4 |
| 20260504020942 | 77 | 30 | 3.5 | 10.4 | 0.00 | 4.47 | 0.00 | 68 | 1016.4 |
| 20260504020533 | 77 | 3 | 5.2 | 10.4 | 0.00 | 4.52 | 0.00 | 68 | 1016.5 |
| 20260504020442 | 78 | 218 | 7.0 | 10.4 | 0.00 | 4.53 | 0.00 | 68 | 1016.4 |
| 20260504020023 | 78 | 345 | 0.9 | 10.4 | 0.00 | 4.62 | 0.00 | 69 | 1016.4 |
| 20260504015941 | 77 | 360 | 2.6 | 10.4 | 0.00 | 4.62 | 0.00 | 69 | 1016.4 |
| 20260504015513 | 77 | 254 | 2.6 | 9.6 | 0.00 | 4.73 | 0.00 | 68 | 1016.4 |
| 20260504015442 | 77 | 237 | 4.3 | 9.6 | 0.00 | 4.75 | 0.00 | 68 | 1016.3 |
| 20260504015003 | 77 | 286 | 1.7 | 4.3 | 0.00 | 4.80 | 0.00 | 70 | 1016.4 |
| 20260504014941 | 77 | 246 | 1.7 | 4.3 | 0.00 | 4.83 | 0.00 | 70 | 1016.3 |
| 20260504014453 | 76 | 56 | 0.9 | 10.4 | 0.00 | 4.87 | 0.00 | 69 | 1016.5 |
| 20260504014443 | 76 | 297 | 0.9 | 10.4 | 0.00 | 4.87 | 0.00 | 68 | 1016.5 |
| 20260504013943 | 77 | 76 | 5.2 | 7.8 | 0.00 | 4.99 | 0.00 | 68 | 1016.5 |
| 20260504013941 | 77 | 67 | 5.2 | 7.8 | 0.00 | 4.99 | 0.00 | 68 | 1016.5 |
| 20260504013441 | 78 | 24 | 5.2 | 8.7 | 0.00 | 5.10 | 0.00 | 68 | 1016.5 |
| 20260504013433 | 78 | 26 | 5.2 | 8.7 | 0.00 | 5.10 | 0.00 | 68 | 1016.5 |
| 20260504012942 | 77 | 244 | 0.0 | 5.2 | 0.00 | 5.20 | 0.00 | 68 | 1016.2 |
| 20260504012923 | 77 | 53 | 0.9 | 5.2 | 0.00 | 5.20 | 0.00 | 68 | 1016.2 |
| 20260504012441 | 77 | 265 | 1.7 | 10.4 | 0.00 | 5.33 | 0.00 | 67 | 1016.0 |
| 20260504012412 | 77 | 319 | 2.6 | 10.4 | 0.00 | 5.33 | 0.00 | 67 | 1016.0 |
| 20260504011941 | 77 | 151 | 4.3 | 7.8 | 0.00 | 5.42 | 0.00 | 67 | 1016.1 |
| 20260504011903 | 77 | 111 | 5.2 | 7.8 | 0.00 | 5.42 | 0.00 | 67 | 1016.1 |
| 20260504011441 | 77 | 221 | 3.5 | 12.2 | 0.00 | 5.48 | 0.00 | 66 | 1016.0 |
| 20260504010941 | 77 | 50 | 3.5 | 7.0 | 0.00 | 5.57 | 0.00 | 67 | 1015.9 |
| 20260504010843 | 77 | 19 | 3.5 | 7.0 | 0.00 | 5.58 | 0.00 | 66 | 1015.8 |
| 20260504010441 | 77 | 183 | 1.7 | 15.6 | 0.00 | 5.64 | 0.00 | 67 | 1015.7 |
| 20260504010332 | 76 | 31 | 2.6 | 15.6 | 0.00 | 5.65 | 0.00 | 66 | 1015.7 |
| 20260504005941 | 77 | 48 | 4.3 | 9.6 | 0.00 | 5.74 | 0.00 | 66 | 1015.7 |
| 20260504005822 | 77 | 89 | 4.3 | 9.6 | 0.00 | 5.76 | 0.00 | 66 | 1015.7 |
| 20260504005442 | 77 | 61 | 3.5 | 8.7 | 0.00 | 5.85 | 0.00 | 67 | 1015.7 |
| 20260504005313 | 77 | 236 | 2.6 | 7.0 | 0.00 | 5.91 | 0.00 | 67 | 1015.7 |
| 20260504004941 | 77 | 254 | 1.7 | 6.1 | 0.00 | 6.03 | 0.00 | 69 | 1015.7 |
| 20260504004802 | 76 | 29 | 4.3 | 6.1 | 0.00 | 6.08 | 0.00 | 69 | 1015.7 |
| 20260504004441 | 76 | 46 | 0.0 | 2.6 | 0.00 | 6.20 | 0.00 | 69 | 1015.6 |
| 20260504004253 | 76 | 351 | 0.9 | 3.5 | 0.00 | 6.23 | 0.00 | 70 | 1015.7 |
| 20260504003941 | 75 | 252 | 0.9 | 3.5 | 0.00 | 6.27 | 0.00 | 71 | 1015.7 |
| 20260504003742 | 75 | 177 | 0.0 | 1.7 | 0.00 | 6.30 | 0.00 | 71 | 1015.8 |
| 20260504003441 | 75 | 89 | 0.0 | 2.6 | 0.00 | 6.43 | 0.00 | 71 | 1015.8 |
| 20260504003233 | 74 | 24 | 0.0 | 2.6 | 0.00 | 6.50 | 0.00 | 70 | 1015.8 |
| 20260504002940 | 74 | 322 | 0.0 | 1.7 | 0.00 | 6.56 | 0.00 | 70 | 1015.8 |
| 20260504002722 | 74 | 214 | 0.9 | 4.3 | 0.00 | 6.57 | 0.00 | 71 | 1015.8 |
| 20260504002441 | 74 | 334 | 1.7 | 4.3 | 0.00 | 6.66 | 0.00 | 71 | 1015.8 |
| 20260504002212 | 74 | 31 | 0.9 | 7.0 | 0.00 | 6.70 | 0.00 | 71 | 1015.7 |
| 20260504001941 | 74 | 25 | 0.9 | 8.7 | 0.00 | 6.76 | 0.00 | 72 | 1015.6 |
| 20260504001702 | 74 | 56 | 5.2 | 8.7 | 0.00 | 6.85 | 0.00 | 72 | 1015.6 |
| 20260504001440 | 74 | 27 | 1.7 | 6.1 | 0.00 | 6.94 | 0.00 | 73 | 1015.6 |
| 20260504001152 | 74 | 293 | 2.6 | 4.3 | 0.00 | 7.07 | 0.00 | 74 | 1015.6 |
| 20260504000941 | 74 | 292 | 2.6 | 3.5 | 0.00 | 7.14 | 0.00 | 73 | 1015.6 |
| 20260504000641 | 74 | 54 | 0.0 | 1.7 | 0.00 | 7.21 | 0.00 | 72 | 1015.7 |
| 20260504000440 | 74 | 8 | 0.0 | 0.9 | 0.00 | 7.24 | 0.00 | 73 | 1015.5 |
| 20260504000132 | 74 | 317 | 0.0 | 4.3 | 0.00 | 7.27 | 0.00 | 71 | 1015.4 |
| 20260503235941 | 74 | 30 | 0.0 | 5.2 | 0.00 | 7.27 | 0.00 | 70 | 1015.3 |
| 20260503235622 | 74 | 106 | 2.6 | 7.8 | 0.00 | 7.32 | 0.00 | 70 | 1015.4 |
| 20260503235441 | 74 | 112 | 3.5 | 7.8 | 0.00 | 7.34 | 0.00 | 71 | 1015.4 |
| 20260503235112 | 73 | 150 | 0.9 | 3.5 | 0.00 | 7.39 | 0.00 | 72 | 1015.4 |
| 20260503234941 | 73 | 178 | 0.9 | 3.5 | 0.00 | 7.41 | 0.00 | 72 | 1015.4 |
| 20260503234602 | 73 | 67 | 1.7 | 5.2 | 0.00 | 7.44 | 0.00 | 73 | 1015.3 |
| 20260503234441 | 73 | 29 | 2.6 | 6.1 | 0.00 | 7.46 | 0.00 | 74 | 1015.2 |
| 20260503234052 | 73 | 255 | 2.6 | 7.8 | 0.00 | 7.49 | 0.00 | 73 | 1015.2 |
| 20260503233940 | 73 | 271 | 5.2 | 7.8 | 0.00 | 7.51 | 0.00 | 73 | 1015.1 |
| 20260503233542 | 73 | 264 | 0.0 | 4.3 | 0.00 | 7.54 | 0.00 | 73 | 1014.9 |
| 20260503233440 | 73 | 39 | 0.9 | 4.3 | 0.00 | 7.58 | 0.00 | 73 | 1015.0 |
| 20260503233032 | 73 | 92 | 0.9 | 7.8 | 0.00 | 7.59 | 0.00 | 73 | 1015.0 |
| 20260503232940 | 73 | 31 | 1.7 | 7.8 | 0.00 | 7.60 | 0.00 | 73 | 1015.0 |
| 20260503232521 | 73 | 45 | 1.7 | 3.5 | 0.00 | 7.60 | 0.00 | 74 | 1014.9 |
| 20260503232440 | 73 | 79 | 0.9 | 4.3 | 0.00 | 7.61 | 0.00 | 74 | 1014.8 |
| 20260503232012 | 73 | 75 | 1.7 | 10.4 | 0.00 | 7.62 | 0.00 | 74 | 1014.8 |
| 20260503231940 | 73 | 53 | 0.0 | 11.3 | 0.00 | 7.62 | 0.00 | 74 | 1014.8 |
| 20260503231502 | 72 | 80 | 7.0 | 12.2 | 0.00 | 7.71 | 0.00 | 75 | 1014.6 |
| 20260503231441 | 72 | 100 | 6.1 | 12.2 | 0.00 | 7.71 | 0.00 | 75 | 1014.5 |
| 20260503230951 | 72 | 20 | 2.6 | 8.7 | 0.00 | 7.80 | 0.00 | 76 | 1014.6 |
| 20260503230940 | 72 | 47 | 3.5 | 8.7 | 0.00 | 7.80 | 0.00 | 76 | 1014.5 |
| 20260503230440 | 72 | 64 | 0.9 | 6.1 | 0.00 | 7.88 | 0.00 | 76 | 1014.6 |
| 20260503225941 | 72 | 39 | 2.6 | 5.2 | 0.00 | 7.94 | 0.00 | 77 | 1014.3 |
| 20260503225931 | 72 | 64 | 3.5 | 5.2 | 0.00 | 7.94 | 0.00 | 77 | 1014.3 |
| 20260503225440 | 71 | 48 | 1.7 | 5.2 | 0.00 | 8.01 | 0.00 | 78 | 1014.2 |
| 20260503225421 | 71 | 64 | 1.7 | 5.2 | 0.00 | 8.01 | 0.00 | 78 | 1014.3 |
| 20260503224940 | 72 | 16 | 0.9 | 2.6 | 0.00 | 8.12 | 0.00 | 79 | 1014.3 |
| 20260503224911 | 72 | 61 | 0.9 | 2.6 | 0.00 | 8.12 | 0.00 | 79 | 1014.3 |
| 20260503224440 | 71 | 60 | 0.9 | 2.6 | 0.00 | 8.22 | 0.00 | 79 | 1014.2 |
| 20260503224402 | 71 | 193 | 0.9 | 2.6 | 0.00 | 8.22 | 0.00 | 79 | 1014.1 |
| 20260503223939 | 71 | 35 | 0.0 | 0.9 | 0.00 | 8.27 | 0.00 | 80 | 1014.2 |
| 20260503223851 | 71 | 41 | 0.0 | 0.9 | 0.00 | 8.29 | 0.00 | 80 | 1014.2 |
| 20260503223440 | 71 | 48 | 0.9 | 2.6 | 0.00 | 8.35 | 0.00 | 80 | 1014.1 |
| 20260503223341 | 71 | 55 | 0.9 | 2.6 | 0.00 | 8.36 | 0.00 | 80 | 1014.1 |
| 20260503222940 | 71 | 26 | 0.9 | 5.2 | 0.00 | 8.40 | 0.00 | 79 | 1013.9 |
| 20260503222832 | 71 | 42 | 0.9 | 7.0 | 0.00 | 8.43 | 0.00 | 80 | 1013.9 |
| 20260503222439 | 71 | 58 | 3.5 | 7.0 | 0.00 | 8.45 | 0.00 | 81 | 1013.9 |
| 20260503222321 | 71 | 66 | 2.6 | 7.0 | 0.00 | 8.46 | 0.00 | 81 | 1013.9 |
| 20260503221940 | 70 | 119 | 3.5 | 9.6 | 0.00 | 8.52 | 0.00 | 82 | 1013.9 |
| 20260503221811 | 70 | 63 | 3.5 | 9.6 | 0.00 | 8.53 | 0.00 | 83 | 1013.8 |
| 20260503221440 | 70 | 57 | 0.9 | 2.6 | 0.00 | 8.57 | 0.00 | 84 | 1013.8 |
| 20260503221301 | 70 | 46 | 0.0 | 1.7 | 0.00 | 8.58 | 0.00 | 84 | 1013.7 |
| 20260503220939 | 70 | 30 | 0.0 | 1.7 | 0.00 | 8.63 | 0.00 | 84 | 1013.6 |
| 20260503220751 | 70 | 67 | 0.0 | 0.9 | 0.00 | 8.64 | 0.00 | 84 | 1013.6 |
| 20260503220440 | 70 | 48 | 0.0 | 1.7 | 0.00 | 8.64 | 0.00 | 84 | 1013.5 |
| 20260503220241 | 70 | 45 | 0.9 | 1.7 | 0.00 | 8.65 | 0.00 | 84 | 1013.4 |
| 20260503215940 | 70 | 19 | 0.0 | 1.7 | 0.00 | 8.69 | 0.00 | 84 | 1013.3 |
| 20260503215731 | 70 | 52 | 0.0 | 0.9 | 0.00 | 8.69 | 0.00 | 85 | 1013.3 |
| 20260503215439 | 70 | 4 | 0.0 | 0.9 | 0.00 | 8.71 | 0.00 | 85 | 1013.3 |
| 20260503215221 | 70 | 17 | 0.0 | 0.9 | 0.00 | 8.72 | 0.00 | 85 | 1013.2 |
| 20260503214940 | 70 | 37 | 0.9 | 0.9 | 0.00 | 8.75 | 0.00 | 85 | 1013.3 |
| 20260503214711 | 70 | 6 | 0.0 | 0.9 | 0.00 | 8.75 | 0.00 | 85 | 1013.3 |
| 20260503214439 | 70 | 31 | 0.0 | 0.9 | 0.00 | 8.75 | 0.00 | 85 | 1013.3 |
| 20260503214201 | 70 | 15 | 0.9 | 1.7 | 0.00 | 8.79 | 0.00 | 84 | 1013.1 |
| 20260503213939 | 70 | 120 | 0.0 | 1.7 | 0.00 | 8.79 | 0.00 | 85 | 1013.0 |
| 20260503213651 | 70 | 39 | 0.0 | 1.7 | 0.00 | 8.84 | 0.00 | 85 | 1013.0 |
| 20260503213440 | 70 | 21 | 0.0 | 1.7 | 0.00 | 8.85 | 0.00 | 85 | 1012.9 |
| 20260503213140 | 70 | 24 | 0.9 | 1.7 | 0.00 | 8.87 | 0.00 | 85 | 1012.8 |
| 20260503212939 | 70 | 96 | 0.9 | 1.7 | 0.00 | 8.89 | 0.00 | 85 | 1012.8 |
| 20260503212631 | 70 | 87 | 0.0 | 4.3 | 0.00 | 8.91 | 0.00 | 86 | 1012.8 |
| 20260503212439 | 70 | 59 | 2.6 | 4.3 | 0.00 | 8.96 | 0.00 | 86 | 1012.7 |
| 20260503212121 | 70 | 49 | 0.9 | 1.7 | 0.00 | 8.97 | 0.00 | 87 | 1012.7 |
| 20260503211940 | 70 | 23 | 0.9 | 2.6 | 0.00 | 8.97 | 0.00 | 87 | 1012.7 |
| 20260503211610 | 70 | 35 | 0.9 | 3.5 | 0.00 | 9.02 | 0.00 | 87 | 1012.8 |
| 20260503211439 | 70 | 101 | 2.6 | 3.5 | 0.00 | 9.02 | 0.00 | 87 | 1012.7 |
| 20260503211101 | 70 | 54 | 1.7 | 8.7 | 0.00 | 9.04 | 0.00 | 88 | 1012.5 |
| 20260503210939 | 70 | 48 | 5.2 | 8.7 | 0.00 | 9.07 | 0.00 | 87 | 1012.4 |
| 20260503210550 | 70 | 40 | 0.9 | 1.7 | 0.00 | 9.09 | 0.00 | 88 | 1012.4 |
| 20260503210440 | 70 | 359 | 0.0 | 0.9 | 0.00 | 9.10 | 0.00 | 88 | 1012.4 |
| 20260503210040 | 70 | 57 | 0.0 | 0.9 | 0.00 | 9.12 | 0.00 | 88 | 1012.5 |
| 20260503205939 | 70 | 56 | 0.0 | 0.0 | 0.00 | 9.14 | 0.00 | 88 | 1012.4 |
| 20260503205531 | 70 | 360 | 0.0 | 0.9 | 0.00 | 9.20 | 0.00 | 88 | 1012.3 |
| 20260503205439 | 70 | 344 | 0.0 | 0.9 | 0.00 | 9.20 | 0.00 | 88 | 1012.3 |
| 20260503205021 | 70 | 46 | 0.0 | 0.9 | 0.00 | 9.23 | 0.00 | 88 | 1012.1 |
| 20260503204940 | 70 | 49 | 0.0 | 0.9 | 0.00 | 9.23 | 0.00 | 88 | 1012.1 |
| 20260503204510 | 70 | 48 | 0.0 | 1.7 | 0.00 | 9.28 | 0.00 | 88 | 1012.2 |
| 20260503204439 | 70 | 53 | 0.0 | 1.7 | 0.00 | 9.28 | 0.00 | 88 | 1012.1 |
| 20260503204000 | 71 | 30 | 0.0 | 0.9 | 0.00 | 9.35 | 0.00 | 88 | 1012.1 |
| 20260503203939 | 71 | 18 | 0.0 | 0.9 | 0.00 | 9.35 | 0.00 | 88 | 1012.1 |
| 20260503203451 | 71 | 29 | 0.0 | 0.9 | 0.00 | 9.42 | 0.00 | 88 | 1011.9 |
| 20260503203438 | 71 | 42 | 0.0 | 0.9 | 0.00 | 9.42 | 0.00 | 88 | 1011.9 |
| 20260503202939 | 71 | 9 | 0.0 | 0.9 | 0.00 | 9.48 | 0.00 | 88 | 1012.1 |
| 20260503202439 | 71 | 82 | 0.0 | 0.9 | 0.00 | 9.51 | 0.00 | 88 | 1011.9 |
| 20260503202430 | 71 | 71 | 0.0 | 0.9 | 0.00 | 9.51 | 0.00 | 88 | 1011.9 |
| 20260503201939 | 71 | 21 | 0.0 | 0.9 | 0.00 | 9.59 | 0.00 | 88 | 1012.0 |
| 20260503201920 | 71 | 30 | 0.0 | 0.9 | 0.00 | 9.59 | 0.00 | 88 | 1012.0 |
| 20260503201438 | 71 | 2 | 0.0 | 1.7 | 0.00 | 9.73 | 0.00 | 88 | 1012.0 |
| 20260503201410 | 71 | 360 | 0.0 | 1.7 | 0.00 | 9.75 | 0.00 | 88 | 1012.0 |
| 20260503200939 | 71 | 38 | 0.9 | 2.6 | 0.00 | 9.79 | 0.00 | 88 | 1012.0 |
| 20260503200900 | 71 | 47 | 1.7 | 2.6 | 0.00 | 9.81 | 0.00 | 88 | 1012.0 |
| 20260503200439 | 71 | 55 | 0.9 | 1.7 | 0.00 | 9.87 | 0.00 | 88 | 1012.1 |
| 20260503200350 | 71 | 42 | 0.9 | 2.6 | 0.00 | 9.88 | 0.00 | 89 | 1012.1 |
| 20260503195939 | 71 | 45 | 0.9 | 2.6 | 0.00 | 9.98 | 0.00 | 89 | 1012.0 |
| 20260503195840 | 71 | 43 | 0.9 | 1.7 | 0.00 | 9.99 | 0.00 | 89 | 1012.0 |
| 20260503195438 | 70 | 24 | 0.0 | 1.7 | 0.00 | 0.03 | 0.00 | 89 | 1011.9 |
| 20260503195330 | 70 | 46 | 0.0 | 1.7 | 0.00 | 0.06 | 0.00 | 89 | 1011.9 |
| 20260503194939 | 70 | 43 | 0.0 | 0.9 | 0.00 | 0.11 | 0.00 | 89 | 1011.9 |
| 20260503194820 | 70 | 31 | 0.9 | 0.9 | 0.00 | 0.12 | 0.00 | 89 | 1011.9 |
| 20260503194439 | 70 | 76 | 0.0 | 2.6 | 0.00 | 0.20 | 0.00 | 89 | 1012.1 |
| 20260503194310 | 70 | 201 | 0.0 | 2.6 | 0.00 | 0.22 | 0.00 | 89 | 1012.2 |
| 20260503193938 | 70 | 128 | 0.0 | 3.5 | 0.00 | 0.26 | 0.00 | 90 | 1012.2 |
| 20260503193800 | 70 | 98 | 2.6 | 3.5 | 0.00 | 0.28 | 0.00 | 90 | 1012.2 |
| 20260503193438 | 70 | 79 | 0.0 | 3.5 | 0.00 | 0.38 | 0.00 | 90 | 1012.3 |
| 20260503193250 | 70 | 87 | 0.9 | 3.5 | 0.00 | 0.42 | 0.00 | 90 | 1012.3 |
| 20260503192939 | 70 | 182 | 1.7 | 2.6 | 0.00 | 0.45 | 0.00 | 90 | 1012.3 |
| 20260503192438 | 70 | 148 | 0.9 | 1.7 | 0.00 | 0.51 | 0.00 | 90 | 1012.2 |
| 20260503192230 | 70 | 197 | 0.0 | 2.6 | 0.00 | 0.52 | 0.00 | 90 | 1012.2 |
| 20260503191939 | 70 | 218 | 0.9 | 2.6 | 0.00 | 0.54 | 0.00 | 90 | 1012.2 |
| 20260503191720 | 70 | 181 | 0.9 | 1.7 | 0.00 | 0.61 | 0.00 | 90 | 1012.2 |
| 20260503191439 | 71 | 213 | 0.9 | 0.9 | 0.00 | 0.64 | 0.00 | 91 | 1012.2 |
| 20260503191209 | 71 | 219 | 0.0 | 0.9 | 0.00 | 0.66 | 0.00 | 91 | 1012.2 |
| 20260503190938 | 71 | 196 | 0.0 | 0.9 | 0.00 | 0.66 | 0.00 | 91 | 1012.2 |
| 20260503190700 | 71 | 232 | 0.0 | 0.9 | 0.00 | 0.72 | 0.00 | 91 | 1012.2 |
| 20260503190439 | 71 | 65 | 0.9 | 0.9 | 0.00 | 0.74 | 0.00 | 91 | 1012.2 |
| 20260503190150 | 71 | 56 | 0.0 | 0.9 | 0.00 | 0.80 | 0.00 | 91 | 1012.3 |
| 20260503185938 | 71 | 150 | 0.0 | 0.9 | 0.00 | 0.80 | 0.00 | 91 | 1012.3 |
| 20260503185640 | 71 | 133 | 0.0 | 0.0 | 0.00 | 0.85 | 0.00 | 91 | 1012.3 |
| 20260503185438 | 71 | 52 | 0.0 | 0.9 | 0.00 | 0.87 | 0.00 | 91 | 1012.2 |
| 20260503185130 | 71 | 23 | 0.0 | 0.9 | 0.00 | 0.90 | 0.00 | 91 | 1012.4 |
| 20260503184939 | 71 | 10 | 0.0 | 0.9 | 0.00 | 0.96 | 0.00 | 91 | 1012.3 |
| 20260503184619 | 71 | 28 | 0.0 | 0.9 | 0.00 | 1.01 | 0.00 | 91 | 1012.3 |
| 20260503184438 | 71 | 59 | 0.0 | 0.9 | 0.00 | 1.03 | 0.00 | 91 | 1012.3 |
| 20260503184110 | 71 | 50 | 0.0 | 0.9 | 0.00 | 1.11 | 0.00 | 91 | 1012.3 |
| 20260503183938 | 71 | 48 | 0.0 | 0.9 | 0.00 | 1.11 | 0.00 | 91 | 1012.3 |
| 20260503183559 | 72 | 2 | 0.0 | 0.9 | 0.00 | 1.14 | 0.00 | 91 | 1012.4 |
| 20260503183438 | 72 | 39 | 0.0 | 0.9 | 0.00 | 1.16 | 0.00 | 91 | 1012.4 |
| 20260503183049 | 72 | 52 | 0.0 | 0.9 | 0.00 | 1.23 | 0.00 | 91 | 1012.5 |
| 20260503182938 | 72 | 65 | 0.0 | 0.9 | 0.00 | 1.24 | 0.00 | 91 | 1012.4 |
| 20260503182540 | 72 | 182 | 0.0 | 0.9 | 0.00 | 1.31 | 0.00 | 91 | 1012.4 |
| 20260503182438 | 72 | 194 | 0.0 | 0.0 | 0.00 | 1.35 | 0.00 | 91 | 1012.5 |
| 20260503182030 | 72 | 58 | 0.0 | 0.9 | 0.00 | 1.42 | 0.00 | 91 | 1012.6 |
| 20260503181938 | 72 | 59 | 0.0 | 0.9 | 0.00 | 1.44 | 0.00 | 91 | 1012.6 |
| 20260503181519 | 72 | 53 | 0.0 | 0.9 | 0.00 | 1.57 | 0.00 | 91 | 1012.7 |
| 20260503181438 | 72 | 35 | 0.0 | 0.9 | 0.00 | 1.57 | 0.00 | 91 | 1012.7 |
| 20260503181010 | 72 | 42 | 0.0 | 0.9 | 0.00 | 1.69 | 0.00 | 91 | 1012.8 |
| 20260503180938 | 72 | 37 | 0.0 | 0.9 | 0.00 | 1.69 | 0.00 | 91 | 1012.8 |
| 20260503180438 | 72 | 167 | 0.0 | 0.9 | 0.00 | 1.78 | 0.00 | 91 | 1013.0 |
| 20260503175949 | 72 | 297 | 0.0 | 0.0 | 0.00 | 1.90 | 0.00 | 91 | 1013.1 |
| 20260503175938 | 72 | 303 | 0.0 | 0.0 | 0.00 | 1.90 | 0.00 | 91 | 1013.1 |
| 20260503175441 | 72 | 300 | 0.0 | 0.0 | 0.00 | 2.01 | 0.00 | 91 | 1013.1 |
| 20260503175438 | 72 | 299 | 0.0 | 0.0 | 0.00 | 2.01 | 0.00 | 91 | 1013.1 |
| 20260503174929 | 72 | 73 | 0.0 | 0.9 | 0.00 | 2.11 | 0.00 | 91 | 1013.2 |
| 20260503174438 | 72 | 44 | 0.9 | 0.9 | 0.00 | 2.16 | 0.00 | 91 | 1013.3 |
| 20260503174419 | 72 | 46 | 0.9 | 0.9 | 0.00 | 2.20 | 0.00 | 91 | 1013.3 |
| 20260503173937 | 72 | 115 | 0.0 | 0.9 | 0.00 | 2.30 | 0.00 | 91 | 1013.3 |
| 20260503173909 | 72 | 195 | 0.0 | 0.9 | 0.00 | 2.33 | 0.00 | 91 | 1013.3 |
| 20260503173437 | 72 | 238 | 0.0 | 0.0 | 0.00 | 2.38 | 0.00 | 91 | 1013.4 |
| 20260503173359 | 72 | 249 | 0.0 | 0.0 | 0.00 | 2.43 | 0.00 | 91 | 1013.4 |
| 20260503172938 | 72 | 247 | 0.0 | 0.9 | 0.00 | 2.55 | 0.00 | 91 | 1013.5 |
| 20260503172849 | 72 | 247 | 0.0 | 0.9 | 0.00 | 2.55 | 0.00 | 91 | 1013.6 |
| 20260503172438 | 72 | 210 | 0.9 | 1.7 | 0.00 | 2.64 | 0.00 | 91 | 1013.6 |
| 20260503172339 | 72 | 220 | 0.9 | 1.7 | 0.00 | 2.70 | 0.00 | 91 | 1013.6 |
| 20260503171937 | 71 | 230 | 0.9 | 1.7 | 0.00 | 2.77 | 0.00 | 91 | 1013.7 |
| 20260503171829 | 71 | 240 | 0.9 | 1.7 | 0.00 | 2.83 | 0.00 | 91 | 1013.7 |
| 20260503171437 | 71 | 21 | 0.0 | 0.0 | 0.00 | 2.87 | 0.00 | 91 | 1013.8 |
| 20260503171319 | 71 | 19 | 0.0 | 0.0 | 0.00 | 2.93 | 0.00 | 91 | 1013.8 |
| 20260503170938 | 71 | 20 | 0.0 | 0.0 | 0.00 | 2.98 | 0.00 | 91 | 1013.9 |
| 20260503170809 | 71 | 19 | 0.0 | 0.0 | 0.00 | 3.01 | 0.00 | 91 | 1013.9 |
| 20260503170437 | 71 | 19 | 0.0 | 0.9 | 0.00 | 3.07 | 0.00 | 91 | 1014.0 |
| 20260503150937 | 72 | 283 | 0.9 | 5.2 | 0.00 | 5.76 | 0.00 | 91 | 1014.2 |
| 20260503150918 | 72 | 274 | 0.9 | 5.2 | 0.00 | 5.76 | 0.00 | 91 | 1014.2 |
| 20260503150436 | 72 | 296 | 0.0 | 8.7 | 0.00 | 5.88 | 0.00 | 91 | 1013.9 |
| 20260503150407 | 72 | 322 | 0.0 | 8.7 | 0.00 | 5.90 | 0.00 | 91 | 1014.0 |
| 20260503140208 | 73 | 201 | 0.9 | 3.5 | 0.00 | 6.99 | 0.00 | 92 | 1014.3 |
| 20260503131027 | 73 | 223 | 0.9 | 3.5 | 0.00 | 8.04 | 0.00 | 92 | 1013.8 |
| 20260503130937 | 73 | 260 | 0.0 | 3.5 | 0.00 | 8.07 | 0.00 | 92 | 1013.8 |
| 20260503130516 | 73 | 315 | 0.0 | 4.3 | 0.00 | 8.20 | 0.00 | 92 | 1013.7 |
| 20260503130435 | 73 | 58 | 1.7 | 4.3 | 0.00 | 8.20 | 0.00 | 92 | 1013.7 |
| 20260503110625 | 73 | 360 | 0.0 | 0.9 | 0.00 | 0.22 | 0.00 | 92 | 1012.1 |
| 20260503110435 | 73 | 316 | 0.0 | 3.5 | 0.00 | 0.24 | 0.00 | 92 | 1012.0 |
| 20260503110116 | 73 | 183 | 1.7 | 3.5 | 0.00 | 0.25 | 0.00 | 92 | 1012.0 |